This demonstration page uses our WeatherBlox Daily Observations layout. Learn more.

Left ArrowRight Arrow

39.08367, -84.50855

Hourly Observations for November 4, 2015

Temp ( °F °C ) Dew Point ( °F °C ) Humidity (%) Winds ( mph kmh ) Pressure ( in mb ) Visibility ( mi km ) Precip ( " mm )
12:06 am 00:06 Clear with Mist and Fog 52 11.1 52 11.1 100 100 Calm 30.18 1022 2 2 0.00 0.00
12:16 am 00:16 Clear with Mist and Fog 52 11 52 11 100 100 Calm 30.18 1022 1 1 0.00 0.00
12:35 am 00:35 Clear with Mist and Fog 50 10 50 10 100 100 Calm 30.18 1022 1 2 0.00 0.00
12:42 am 00:42 Clear with Mist and Fog 50 10 50 10 100 100 Calm 30.18 1022 1 1 0.00 0.00
12:45 am 00:45 Mostly Cloudy with Mist and Fog 50 10 50 10 100 100 Calm 30.18 1022 1 2 0.00 0.00
12:48 am 00:48 Mostly Clear with Mist and Fog 50 10 50 10 100 100 Calm 30.18 1022 3 4 0.00 0.00
12:53 am 00:53 Mostly Clear with Mist and Fog 50 10 50 10 100 100 Calm 30.16 1022 2 3 0.00 0.00
1:15 am 01:15 Clear with Mist and Fog 51 10.6 51 10.6 100 100 Calm 30.18 1022 3 5 0.00 0.00
1:21 am 01:21 Clear with Mist and Fog 50 10 50 10 100 100 Calm 30.18 1022 2 2 0.00 0.00
1:28 am 01:28 Mostly Cloudy with Fog 48 9 48 9 100 100 Calm 30.18 1022 1 1 0.00 0.00
1:42 am 01:42 Mostly Cloudy with Mist and Fog 50 10 50 10 100 100 Calm 30.18 1022 1 1 0.00 0.00
1:47 am 01:47 Mostly Cloudy with Mist and Fog 50 10 50 10 100 100 Calm 30.18 1022 2 2 0.00 0.00
1:53 am 01:53 Mostly Cloudy with Mist and Fog 50 10 50 10 100 100 Calm 30.16 1022 1 2 0.00 0.00
2:00 am 02:00 Partly Cloudy with Mist and Fog 50 10 50 10 100 100 Calm 30.18 1022 1 1 0.00 0.00
2:11 am 02:11 Mostly Cloudy with Mist and Fog 50 10 50 10 100 100 Calm 30.18 1022 1 2 0.00 0.00
2:13 am 02:13 Mostly Clear with Mist and Fog 51 10.6 51 10.6 100 100 Calm 30.18 1022 3 4 0.00 0.00
2:20 am 02:20 Mostly Clear 50 10 50 10 100 100 Calm 30.18 1022 10 16 0.00 0.00
2:25 am 02:25 Partly Cloudy with Mist and Fog 49 9.4 49 9.4 100 100 Calm 30.18 1022 2 3 0.00 0.00
2:46 am 02:46 Cloudy with Mist and Fog 48 9 48 9 100 100 Calm 30.18 1022 3 5 0.00 0.00
2:53 am 02:53 Cloudy 50 10 50 10 100 100 Calm 30.16 1022 10 16 0.00 0.00
3:53 am 03:53 Clear with Mist and Fog 49 9.4 49 9.4 100 100 Calm 30.16 1022 5 8 0.00 0.00
4:10 am 04:10 Mostly Clear with Mist and Fog 49 9.4 49 9.4 100 100 Calm 30.18 1022 2 2 0.00 0.00
4:12 am 04:12 Mostly Cloudy with Mist and Fog 48 9 48 9 100 100 Calm 30.18 1022 1 1 0.00 0.00
4:24 am 04:24 Mostly Clear with Mist and Fog 48 9 48 9 100 100 Calm 30.18 1022 1 2 0.00 0.00
4:30 am 04:30 Mostly Clear with Mist and Fog 48 9 48 9 100 100 Calm 30.18 1022 4 6 0.00 0.00
4:49 am 04:49 Clear with Mist and Fog 48 9 48 9 100 100 NE 3 6 30.18 1022 2 3 0.00 0.00
4:53 am 04:53 Clear with Mist and Fog 48 8.9 48 8.9 100 100 NE 3 6 30.17 1022 1 2 0.00 0.00
5:04 am 05:04 Mostly Clear with Mist and Fog 49 9.4 49 9.4 100 100 Calm 30.18 1022 3 5 0.00 0.00
5:27 am 05:27 Partly Cloudy with Mist and Fog 48 8.9 48 8.9 100 100 Calm 30.18 1022 5 8 0.00 0.00
5:46 am 05:46 Partly Cloudy with Mist and Fog 48 9 48 9 100 100 Calm 30.18 1022 2 2 0.00 0.00
5:50 am 05:50 Mostly Cloudy with Mist and Fog 48 9 48 9 100 100 SSE 3 6 30.21 1023 1 1 0.00 0.00
5:53 am 05:53 Mostly Cloudy with Mist and Fog 48 8.9 48 8.9 100 100 SSE 3 6 30.19 1022 1 1 0.00 0.00
6:35 am 06:35 Mostly Cloudy with Fog 49 9.4 49 9.4 100 100 N 3 6 30.21 1023 0 0 0.00 0.00
6:53 am 06:53 Mostly Cloudy with Fog 49 9.4 49 9.4 100 100 Calm 30.20 1023 1 1 0.00 0.00
7:10 am 07:10 Cloudy with Mist and Fog 50 10 50 10 100 100 Calm 30.21 1023 2 3 0.00 0.00
7:12 am 07:12 Cloudy with Mist and Fog 50 10 50 10 100 100 Calm 30.21 1023 4 6 0.00 0.00
7:13 am 07:13 Cloudy with Mist and Fog 50 10 50 10 100 100 Calm 30.21 1023 4 6 0.00 0.00
7:14 am 07:14 Cloudy with Mist and Fog 50 10 50 10 100 100 Calm 30.21 1023 5 8 0.00 0.00
7:53 am 07:53 Mostly Cloudy 52 11.1 52 11.1 100 100 Calm 30.22 1023 10 16 0.00 0.00
8:53 am 08:53 Cloudy 54 12.2 54 12.2 100 100 Calm 30.24 1024 10 16 0.00 0.00
9:53 am 09:53 Cloudy 58 14.4 56 13.3 93 93 Calm 30.23 1024 10 16 0.00 0.00
10:53 am 10:53 Cloudy 61 16.1 58 14.4 90 90 Calm 30.23 1024 10 16 0.00 0.00
11:53 am 11:53 Cloudy 65 18.3 59 15 81 81 SW 5 7 30.22 1024 10 16 0.00 0.00
12:53 pm 12:53 Cloudy 68 20 60 15.6 76 76 Calm 30.19 1022 10 16 0.00 0.00
1:53 pm 13:53 Partly Cloudy 72 22.2 61 16.1 68 68 Calm 30.16 1022 10 16 0.00 0.00
2:53 pm 14:53 Mostly Cloudy 74 23.3 61 16.1 64 64 Calm 30.16 1021 10 16 0.00 0.00
3:53 pm 15:53 Mostly Cloudy 73 22.8 62 16.7 69 69 Calm 30.16 1021 10 16 0.00 0.00
4:53 pm 16:53 Mostly Cloudy 71 21.7 64 17.8 79 79 Calm 30.15 1021 10 16 0.00 0.00
5:53 pm 17:53 Mostly Cloudy 65 18.3 62 16.7 90 90 Calm 30.15 1021 10 16 0.00 0.00
6:53 pm 18:53 Mostly Cloudy 63 17.2 62 16.7 97 97 Calm 30.17 1022 10 16 0.00 0.00
7:53 pm 19:53 Cloudy 62 16.7 61 16.1 96 96 Calm 30.17 1022 10 16 0.00 0.00
8:53 pm 20:53 Cloudy 62 16.7 60 15.6 93 93 Calm 30.16 1022 10 16 0.00 0.00
9:53 pm 21:53 Mostly Cloudy 61 16.1 60 15.6 97 97 Calm 30.16 1021 10 16 0.00 0.00
10:23 pm 22:23 Mostly Clear with Mist and Fog 59 15 59 15 100 100 Calm 30.15 1021 2 3 0.00 0.00
10:36 pm 22:36 Clear with Mist and Fog 59 15 59 15 100 100 Calm 30.15 1021 1 1 0.00 0.00
10:45 pm 22:45 Clear with Mist and Fog 59 15 59 15 100 100 Calm 30.15 1021 2 3 0.00 0.00
10:53 pm 22:53 Clear with Mist and Fog 59 15 59 15 100 100 Calm 30.15 1021 6 10 0.00 0.00
10:59 pm 22:59 Clear with Mist and Fog 57 13.9 57 13.9 100 100 Calm 30.15 1021 2 3 0.00 0.00
11:11 pm 23:11 Clear with Fog 58 14.4 58 14.4 100 100 Calm 30.15 1021 1 1 0.00 0.00
11:53 pm 23:53 Clear with Fog 57 13.9 57 13.9 100 100 Calm 30.16 1021 0 0 0.00 0.00

Powered by AerisWeather